Voltar ao catálogo

STARLINK-33924

AtivoComunicaçõesSSO
NORAD 64149·PAYLOAD·🇺🇸 United States

Lançado May 27, 2025 de Vandenberg Space Force Base

Loading…

Próximas Passagens (próximas 24 horas)

TLE

AtualizadoSource: CelesTrak SupGP

Época: Sep 14, 2026, 22:27 UTC

1 64149C 25112D   26257.93590278  .00027185  00000+0  84408-3 0  2576
2 64149  97.2837 305.0559 0001248  91.5658 277.3945 15.33418495    19

Acompanhe STARLINK-33924 em tempo real com AllMySat

Download on the App Store